| time (UTC) | temp C | wind direction | speed KPH | gust KPH | rain 1hr cm | rain 24hr cm | rain mn cm | humidity % | barometer mb |
| 20260510142525 | 13 | 33 | 3.2 | 9.7 | 0.00 | 0.20 | 0.20 | 52 | 1011.5 |
| 20260510142021 | 13 | 82 | 1.6 | 6.4 | 0.00 | 0.20 | 0.20 | 55 | 1011.3 |
| 20260510141518 | 12 | 22 | 1.6 | 9.7 | 0.00 | 0.20 | 0.20 | 56 | 1011.5 |
| 20260510141015 | 12 | 323 | 4.8 | 9.7 | 0.00 | 0.20 | 0.20 | 57 | 1011.5 |
| 20260510140511 | 12 | 126 | 3.2 | 11.3 | 0.00 | 0.20 | 0.20 | 60 | 1011.6 |
| 20260510140006 | 12 | 122 | 1.6 | 6.4 | 0.00 | 0.20 | 0.20 | 60 | 1011.4 |
| 20260510135501 | 12 | 104 | 3.2 | 4.8 | 0.00 | 0.20 | 0.20 | 60 | 1011.4 |
| 20260510134958 | 12 | 48 | 3.2 | 6.4 | 0.00 | 0.20 | 0.20 | 60 | 1011.2 |
| 20260510134456 | 13 | 20 | 4.8 | 9.7 | 0.00 | 0.20 | 0.20 | 59 | 1011.2 |
| 20260510133952 | 13 | 344 | 3.2 | 6.4 | 0.00 | 0.20 | 0.20 | 59 | 1011.3 |
| 20260510133448 | 13 | 58 | 0.0 | 17.7 | 0.00 | 0.20 | 0.20 | 58 | 1011.3 |
| 20260510132944 | 13 | 89 | 6.4 | 11.3 | 0.00 | 0.20 | 0.20 | 57 | 1011.2 |
| 20260510132442 | 12 | 154 | 9.7 | 12.9 | 0.00 | 0.20 | 0.20 | 58 | 1011.1 |
| 20260510131938 | 12 | 141 | 11.3 | 20.9 | 0.00 | 0.20 | 0.20 | 56 | 1011.0 |
| 20260510131436 | 12 | 15 | 3.2 | 9.7 | 0.00 | 0.20 | 0.20 | 59 | 1011.1 |
| 20260510130932 | 12 | 88 | 4.8 | 9.7 | 0.00 | 0.20 | 0.20 | 60 | 1011.1 |
| 20260510130429 | 12 | 332 | 1.6 | 4.8 | 0.00 | 0.20 | 0.20 | 60 | 1010.9 |
| 20260510125926 | 12 | 33 | 3.2 | 14.5 | 0.00 | 0.20 | 0.20 | 60 | 1010.6 |
| 20260510125422 | 12 | 49 | 4.8 | 11.3 | 0.00 | 0.20 | 0.20 | 60 | 1010.5 |
| 20260510124919 | 12 | 54 | 3.2 | 6.4 | 0.00 | 0.20 | 0.20 | 60 | 1010.5 |
| 20260510124416 | 12 | 132 | 9.7 | 16.1 | 0.00 | 0.20 | 0.20 | 59 | 1010.5 |
| 20260510123912 | 12 | 352 | 0.0 | 14.5 | 0.00 | 0.20 | 0.20 | 61 | 1010.4 |
| 20260510123408 | 12 | 218 | 4.8 | 11.3 | 0.00 | 0.20 | 0.20 | 62 | 1010.3 |
| 20260510122905 | 12 | 144 | 3.2 | 16.1 | 0.00 | 0.20 | 0.20 | 61 | 1010.5 |
| 20260510122359 | 12 | 66 | 3.2 | 9.7 | 0.00 | 0.20 | 0.20 | 63 | 1010.2 |
| 20260510121856 | 12 | 84 | 3.2 | 6.4 | 0.00 | 0.20 | 0.20 | 63 | 1010.2 |
| 20260510121354 | 12 | 27 | 3.2 | 3.2 | 0.00 | 0.20 | 0.20 | 65 | 1010.0 |
| 20260510120851 | 12 | 45 | 4.8 | 14.5 | 0.00 | 0.20 | 0.20 | 65 | 1010.3 |
| 20260510120348 | 12 | 9 | 3.2 | 4.8 | 0.00 | 0.20 | 0.20 | 69 | 1009.9 |
| 20260510115849 | 11 | 34 | 3.2 | 4.8 | 0.00 | 0.20 | 0.20 | 70 | 1010.0 |
| 20260510115346 | 11 | 345 | 3.2 | 4.8 | 0.00 | 0.20 | 0.20 | 70 | 1010.0 |
| 20260510114841 | 11 | 282 | 1.6 | 6.4 | 0.00 | 0.20 | 0.20 | 69 | 1009.9 |
| 20260510114339 | 11 | 26 | 1.6 | 6.4 | 0.00 | 0.20 | 0.20 | 71 | 1009.8 |
| 20260510113839 | 11 | 0 | 1.6 | 4.8 | 0.00 | 0.20 | 0.20 | 72 | 1009.8 |
| 20260510113336 | 11 | 156 | 0.0 | 3.2 | 0.00 | 0.20 | 0.20 | 75 | 1009.9 |
| 20260510112832 | 11 | 350 | 4.8 | 9.7 | 0.00 | 0.20 | 0.20 | 74 | 1009.7 |
| 20260510112329 | 11 | 32 | 1.6 | 3.2 | 0.00 | 0.20 | 0.20 | 76 | 1009.7 |
| 20260510111825 | 11 | 329 | 3.2 | 6.4 | 0.00 | 0.20 | 0.20 | 77 | 1009.6 |
| 20260510111322 | 11 | 0 | 1.6 | 4.8 | 0.00 | 0.20 | 0.20 | 77 | 1009.8 |
| 20260510110817 | 11 | 20 | 1.6 | 3.2 | 0.00 | 0.20 | 0.20 | 78 | 1009.3 |
| 20260510110315 | 11 | 21 | 4.8 | 6.4 | 0.00 | 0.20 | 0.20 | 79 | 1009.4 |
| 20260510105810 | 11 | 50 | 3.2 | 9.7 | 0.00 | 0.20 | 0.20 | 81 | 1009.3 |
| 20260510105309 | 11 | 353 | 1.6 | 9.7 | 0.00 | 0.20 | 0.20 | 83 | 1009.3 |
| 20260510104806 | 11 | 3 | 1.6 | 4.8 | 0.00 | 0.20 | 0.20 | 84 | 1009.2 |
| 20260510104304 | 11 | 12 | 1.6 | 3.2 | 0.00 | 0.20 | 0.20 | 84 | 1008.8 |
| 20260510103800 | 11 | 9 | 1.6 | 4.8 | 0.00 | 0.20 | 0.20 | 84 | 1008.6 |
| 20260510103257 | 11 | 33 | 1.6 | 9.7 | 0.00 | 0.20 | 0.20 | 83 | 1008.6 |
| 20260510102758 | 11 | 38 | 1.6 | 4.8 | 0.00 | 0.20 | 0.20 | 83 | 1008.9 |
| 20260510102254 | 11 | 21 | 3.2 | 6.4 | 0.00 | 0.20 | 0.20 | 83 | 1008.8 |
| 20260510101751 | 11 | 347 | 3.2 | 6.4 | 0.00 | 0.20 | 0.20 | 85 | 1008.7 |
| 20260510101250 | 11 | 358 | 1.6 | 4.8 | 0.00 | 0.20 | 0.20 | 86 | 1008.8 |
| 20260510100745 | 11 | 4 | 0.0 | 6.4 | 0.00 | 0.20 | 0.20 | 86 | 1008.8 |
| 20260510100243 | 11 | 15 | 3.2 | 3.2 | 0.00 | 0.20 | 0.20 | 86 | 1008.8 |
| 20260510095738 | 11 | 138 | 3.2 | 9.7 | 0.00 | 0.20 | 0.20 | 87 | 1008.6 |
| 20260510095234 | 11 | 3 | 1.6 | 6.4 | 0.00 | 0.20 | 0.20 | 87 | 1008.5 |
| 20260510094732 | 11 | 15 | 0.0 | 3.2 | 0.00 | 0.20 | 0.20 | 88 | 1008.3 |
| 20260510094228 | 11 | 32 | 0.0 | 1.6 | 0.00 | 0.20 | 0.20 | 88 | 1008.4 |
| 20260510093724 | 11 | 358 | 1.6 | 3.2 | 0.00 | 0.20 | 0.20 | 88 | 1008.3 |
| 20260510093222 | 10 | 10 | 1.6 | 1.6 | 0.00 | 0.20 | 0.20 | 88 | 1008.3 |
| 20260510092718 | 10 | 356 | 1.6 | 3.2 | 0.00 | 0.20 | 0.20 | 88 | 1008.3 |
| 20260510092214 | 10 | 0 | 0.0 | 1.6 | 0.00 | 0.20 | 0.20 | 88 | 1008.1 |
| 20260510091709 | 10 | 19 | 0.0 | 4.8 | 0.00 | 0.20 | 0.20 | 88 | 1008.1 |
| 20260510091206 | 10 | 16 | 0.0 | 4.8 | 0.00 | 0.20 | 0.20 | 88 | 1008.0 |
| 20260510090703 | 10 | 54 | 3.2 | 6.4 | 0.00 | 0.20 | 0.20 | 88 | 1007.9 |
| 20260510090200 | 11 | 12 | 1.6 | 3.2 | 0.00 | 0.20 | 0.20 | 87 | 1007.9 |
| 20260510085655 | 11 | 338 | 3.2 | 4.8 | 0.00 | 0.20 | 0.20 | 87 | 1007.9 |
| 20260510085150 | 11 | 316 | 3.2 | 6.4 | 0.00 | 0.20 | 0.20 | 87 | 1007.9 |
| 20260510084647 | 11 | 23 | 1.6 | 4.8 | 0.00 | 0.20 | 0.20 | 86 | 1007.7 |
| 20260510084143 | 11 | 1 | 1.6 | 9.7 | 0.00 | 0.20 | 0.20 | 86 | 1007.5 |
| 20260510083640 | 11 | 23 | 1.6 | 4.8 | 0.00 | 0.20 | 0.20 | 86 | 1007.8 |
| 20260510083137 | 11 | 30 | 1.6 | 3.2 | 0.00 | 0.20 | 0.20 | 86 | 1007.7 |
| 20260510082633 | 11 | 8 | 3.2 | 4.8 | 0.00 | 0.20 | 0.20 | 86 | 1007.9 |
| 20260510082129 | 11 | 343 | 1.6 | 3.2 | 0.00 | 0.20 | 0.20 | 86 | 1007.6 |
| 20260510081623 | 11 | 357 | 0.0 | 3.2 | 0.00 | 0.20 | 0.20 | 86 | 1007.7 |
| 20260510081119 | 11 | 41 | 1.6 | 6.4 | 0.00 | 0.20 | 0.20 | 86 | 1007.8 |
| 20260510080619 | 11 | 123 | 1.6 | 9.7 | 0.00 | 0.20 | 0.20 | 86 | 1007.5 |
| 20260510080116 | 11 | 8 | 1.6 | 9.7 | 0.00 | 0.20 | 0.20 | 86 | 1007.7 |
| 20260510075614 | 11 | 4 | 3.2 | 9.7 | 0.00 | 0.20 | 0.20 | 86 | 1007.6 |
| 20260510075111 | 11 | 19 | 3.2 | 3.2 | 0.00 | 0.20 | 0.20 | 86 | 1007.4 |
| 20260510074607 | 11 | 31 | 3.2 | 6.4 | 0.00 | 0.20 | 0.20 | 86 | 1007.5 |
| 20260510074103 | 11 | 1 | 3.2 | 3.2 | 0.00 | 0.20 | 0.20 | 87 | 1007.5 |
| 20260510073559 | 11 | 10 | 1.6 | 9.7 | 0.00 | 0.20 | 0.20 | 87 | 1007.2 |
| 20260510073056 | 11 | 325 | 1.6 | 1.6 | 0.00 | 0.20 | 0.20 | 87 | 1007.2 |
| 20260510072553 | 11 | 27 | 1.6 | 6.4 | 0.00 | 0.20 | 0.20 | 87 | 1007.3 |
| 20260510072048 | 11 | 23 | 1.6 | 9.7 | 0.00 | 0.20 | 0.20 | 88 | 1007.0 |
| 20260510071544 | 11 | 33 | 1.6 | 6.4 | 0.00 | 0.20 | 0.20 | 89 | 1007.4 |
| 20260510071043 | 11 | 25 | 1.6 | 9.7 | 0.00 | 0.20 | 0.20 | 90 | 1007.3 |
| 20260510070539 | 10 | 21 | 6.4 | 6.4 | 0.00 | 0.20 | 0.20 | 90 | 1007.2 |
| 20260510070036 | 10 | 10 | 1.6 | 6.4 | 0.00 | 0.20 | 0.20 | 91 | 1007.2 |
| 20260510065533 | 10 | 28 | 1.6 | 3.2 | 0.00 | 0.20 | 0.20 | 91 | 1007.3 |
| 20260510065029 | 10 | 18 | 4.8 | 6.4 | 0.00 | 0.20 | 0.20 | 92 | 1007.2 |
| 20260510064525 | 10 | 16 | 4.8 | 6.4 | 0.00 | 0.20 | 0.20 | 92 | 1007.2 |
| 20260510064022 | 10 | 345 | 3.2 | 9.7 | 0.00 | 0.20 | 0.20 | 92 | 1007.2 |
| 20260510063519 | 10 | 351 | 3.2 | 6.4 | 0.00 | 0.20 | 0.20 | 92 | 1007.2 |
| 20260510063017 | 10 | 65 | 3.2 | 4.8 | 0.00 | 0.20 | 0.20 | 92 | 1007.1 |
| 20260510062512 | 10 | 17 | 1.6 | 6.4 | 0.00 | 0.20 | 0.20 | 92 | 1006.9 |
| 20260510062007 | 10 | 17 | 3.2 | 9.7 | 0.00 | 0.20 | 0.20 | 92 | 1007.0 |
| 20260510061504 | 10 | 5 | 1.6 | 3.2 | 0.00 | 0.20 | 0.20 | 92 | 1006.8 |
| 20260510061001 | 10 | 18 | 3.2 | 6.4 | 0.00 | 0.20 | 0.20 | 92 | 1006.9 |
| 20260510060458 | 10 | 50 | 3.2 | 4.8 | 0.00 | 0.20 | 0.20 | 92 | 1007.2 |
| 20260510055953 | 10 | 359 | 0.0 | 4.8 | 0.18 | 0.20 | 0.20 | 92 | 1006.6 |
| 20260510055449 | 10 | 17 | 1.6 | 4.8 | 0.18 | 0.20 | 0.20 | 92 | 1007.1 |
| 20260510054948 | 10 | 38 | 3.2 | 4.8 | 0.13 | 0.18 | 0.18 | 92 | 1007.2 |
| 20260510054443 | 10 | 39 | 1.6 | 4.8 | 0.18 | 0.15 | 0.15 | 91 | 1007.3 |
| 20260510053938 | 10 | 8 | 3.2 | 6.4 | 0.36 | 0.15 | 0.15 | 91 | 1007.4 |
| 20260510053434 | 10 | 12 | 3.2 | 9.7 | 0.30 | 0.13 | 0.13 | 91 | 1007.7 |
| 20260510052930 | 10 | 8 | 3.2 | 4.8 | 0.30 | 0.10 | 0.10 | 90 | 1007.5 |
| 20260510052426 | 10 | 8 | 3.2 | 4.8 | 0.13 | 0.05 | 0.05 | 90 | 1007.7 |
| 20260510051922 | 10 | 346 | 1.6 | 9.7 | 0.13 | 0.05 | 0.05 | 90 | 1007.5 |
| 20260510051419 | 10 | 13 | 0.0 | 6.4 | 0.18 | 0.03 | 0.03 | 88 | 1007.5 |
| 20260510050915 | 10 | 10 | 1.6 | 3.2 | 0.18 | 0.03 | 0.03 | 88 | 1007.6 |
| 20260510050412 | 11 | 347 | 3.2 | 4.8 | 0.00 | 0.00 | 0.00 | 87 | 1007.6 |
| 20260510045909 | 11 | 59 | 3.2 | 6.4 | 0.00 | 0.00 | 0.00 | 85 | 1007.4 |
| 20260510045406 | 11 | 337 | 6.4 | 9.7 | 0.00 | 0.00 | 0.00 | 83 | 1007.4 |
| 20260510044903 | 11 | 6 | 8.0 | 16.1 | 0.00 | 0.00 | 0.00 | 83 | 1007.2 |
| 20260510044400 | 11 | 14 | 1.6 | 11.3 | 0.00 | 0.00 | 0.00 | 83 | 1007.3 |
| 20260510043856 | 11 | 350 | 4.8 | 6.4 | 0.00 | 0.00 | 0.00 | 83 | 1007.1 |
| 20260510043352 | 11 | 9 | 3.2 | 9.7 | 0.00 | 0.00 | 0.00 | 83 | 1007.1 |
| 20260510042851 | 11 | 20 | 8.0 | 12.9 | 0.00 | 0.00 | 0.00 | 83 | 1007.1 |
| 20260510042346 | 11 | 330 | 3.2 | 11.3 | 0.00 | 0.00 | 0.00 | 83 | 1006.7 |
| 20260510041842 | 11 | 13 | 3.2 | 12.9 | 0.00 | 0.00 | 0.00 | 83 | 1006.8 |
| 20260510041340 | 11 | 12 | 4.8 | 9.7 | 0.00 | 0.00 | 0.00 | 83 | 1006.8 |
| 20260510040837 | 11 | 349 | 6.4 | 12.9 | 0.00 | 0.00 | 0.00 | 83 | 1007.0 |
| 20260510040334 | 11 | 359 | 4.8 | 12.9 | 0.00 | 0.00 | 0.00 | 83 | 1006.6 |
| 20260510035829 | 11 | 12 | 9.7 | 14.5 | 0.00 | 0.00 | 0.00 | 82 | 1006.7 |
| 20260510035325 | 11 | 15 | 1.6 | 20.9 | 0.00 | 0.00 | 0.00 | 82 | 1006.8 |
| 20260510034821 | 11 | 344 | 3.2 | 12.9 | 0.00 | 0.00 | 0.00 | 82 | 1006.8 |
| 20260510034319 | 11 | 9 | 4.8 | 14.5 | 0.00 | 0.00 | 0.00 | 83 | 1006.8 |
| 20260510033815 | 11 | 8 | 6.4 | 14.5 | 0.00 | 0.00 | 0.00 | 83 | 1006.8 |
| 20260510033313 | 11 | 352 | 9.7 | 17.7 | 0.00 | 0.00 | 0.00 | 83 | 1007.0 |
| 20260510032809 | 11 | 52 | 8.0 | 12.9 | 0.00 | 0.00 | 0.00 | 83 | 1007.0 |
| 20260510032306 | 11 | 330 | 4.8 | 12.9 | 0.00 | 0.00 | 0.00 | 83 | 1007.1 |
| 20260510031801 | 11 | 346 | 4.8 | 9.7 | 0.00 | 0.00 | 0.00 | 84 | 1006.9 |
| 20260510031258 | 11 | 28 | 4.8 | 12.9 | 0.00 | 0.00 | 0.00 | 84 | 1007.2 |
| 20260510030756 | 11 | 354 | 9.7 | 14.5 | 0.00 | 0.00 | 0.00 | 84 | 1007.1 |
| 20260510030254 | 11 | 334 | 6.4 | 16.1 | 0.00 | 0.00 | 0.00 | 84 | 1007.1 |
| 20260510025751 | 11 | 348 | 4.8 | 11.3 | 0.00 | 0.00 | 0.00 | 84 | 1007.3 |
| 20260510025249 | 11 | 6 | 3.2 | 12.9 | 0.00 | 0.00 | 0.00 | 84 | 1007.6 |
| 20260510024745 | 11 | 333 | 8.0 | 16.1 | 0.00 | 0.00 | 0.00 | 83 | 1007.6 |
| 20260510024242 | 11 | 345 | 1.6 | 9.7 | 0.00 | 0.00 | 0.00 | 83 | 1007.6 |
| 20260510023738 | 11 | 335 | 6.4 | 11.3 | 0.00 | 0.00 | 0.00 | 83 | 1007.7 |
| 20260510023235 | 11 | 350 | 3.2 | 11.3 | 0.00 | 0.00 | 0.00 | 82 | 1007.6 |
| 20260510022732 | 11 | 16 | 3.2 | 17.7 | 0.00 | 0.00 | 0.00 | 82 | 1007.6 |
| 20260510022231 | 11 | 4 | 3.2 | 17.7 | 0.00 | 0.00 | 0.00 | 82 | 1007.9 |
| 20260510021726 | 11 | 5 | 6.4 | 11.3 | 0.00 | 0.00 | 0.00 | 82 | 1007.8 |
| 20260510021224 | 11 | 348 | 8.0 | 11.3 | 0.00 | 0.00 | 0.00 | 82 | 1007.9 |
| 20260510020719 | 11 | 21 | 6.4 | 6.4 | 0.00 | 0.00 | 0.00 | 81 | 1008.1 |
| 20260510020219 | 11 | 32 | 6.4 | 12.9 | 0.00 | 0.00 | 0.00 | 81 | 1008.0 |
| 20260510015715 | 11 | 39 | 4.8 | 14.5 | 0.00 | 0.00 | 0.00 | 81 | 1008.0 |
| 20260510015212 | 11 | 29 | 8.0 | 12.9 | 0.00 | 0.00 | 0.00 | 81 | 1008.1 |
| 20260510014707 | 11 | 355 | 9.7 | 17.7 | 0.00 | 0.00 | 0.00 | 81 | 1008.4 |
| 20260510014206 | 11 | 36 | 4.8 | 12.9 | 0.00 | 0.00 | 0.00 | 80 | 1008.4 |
| 20260510013706 | 11 | 20 | 6.4 | 11.3 | 0.00 | 0.00 | 0.00 | 80 | 1008.4 |
| 20260510013202 | 11 | 39 | 6.4 | 11.3 | 0.00 | 0.00 | 0.00 | 79 | 1008.0 |
| 20260510012701 | 11 | 22 | 3.2 | 14.5 | 0.00 | 0.00 | 0.00 | 79 | 1008.2 |
| 20260510012157 | 11 | 340 | 8.0 | 11.3 | 0.00 | 0.00 | 0.00 | 78 | 1008.2 |
| 20260510011652 | 11 | 345 | 3.2 | 14.5 | 0.00 | 0.00 | 0.00 | 78 | 1008.2 |
| 20260510011148 | 11 | 38 | 6.4 | 14.5 | 0.00 | 0.00 | 0.00 | 78 | 1008.2 |
| 20260510010644 | 11 | 15 | 4.8 | 6.4 | 0.00 | 0.00 | 0.00 | 77 | 1008.1 |
| 20260510010141 | 11 | 342 | 12.9 | 16.1 | 0.00 | 0.00 | 0.00 | 77 | 1008.0 |
| 20260510005637 | 11 | 351 | 11.3 | 16.1 | 0.00 | 0.00 | 0.00 | 76 | 1008.1 |
| 20260510005134 | 11 | 347 | 9.7 | 12.9 | 0.00 | 0.00 | 0.00 | 76 | 1007.9 |
| 20260510004633 | 11 | 346 | 6.4 | 12.9 | 0.00 | 0.00 | 0.00 | 75 | 1008.1 |
| 20260510004130 | 11 | 10 | 11.3 | 20.9 | 0.00 | 0.00 | 0.00 | 75 | 1008.1 |
| 20260510003627 | 11 | 53 | 9.7 | 12.9 | 0.00 | 0.00 | 0.00 | 74 | 1008.1 |
| 20260510003123 | 11 | 60 | 6.4 | 16.1 | 0.00 | 0.00 | 0.00 | 74 | 1008.2 |
| 20260510002623 | 11 | 46 | 4.8 | 12.9 | 0.00 | 0.00 | 0.00 | 73 | 1008.3 |
| 20260510002120 | 11 | 7 | 6.4 | 16.1 | 0.00 | 0.00 | 0.00 | 73 | 1008.1 |
| 20260510001617 | 12 | 42 | 6.4 | 17.7 | 0.00 | 0.00 | 0.00 | 72 | 1008.0 |
| 20260510001116 | 12 | 12 | 4.8 | 11.3 | 0.00 | 0.00 | 0.00 | 72 | 1008.1 |
| 20260510000616 | 12 | 3 | 8.0 | 22.5 | 0.00 | 0.00 | 0.00 | 71 | 1007.9 |
| 20260510000114 | 12 | 42 | 6.4 | 12.9 | 0.00 | 0.00 | 0.00 | 71 | 1007.8 |
| 20260509235610 | 12 | 15 | 3.2 | 12.9 | 0.00 | 0.00 | 0.00 | 71 | 1008.0 |
| 20260509235107 | 12 | 16 | 8.0 | 12.9 | 0.00 | 0.00 | 0.00 | 71 | 1007.9 |
| 20260509234603 | 12 | 328 | 14.5 | 20.9 | 0.00 | 0.00 | 0.00 | 70 | 1008.0 |
| 20260509234101 | 12 | 9 | 9.7 | 16.1 | 0.00 | 0.00 | 0.00 | 70 | 1008.1 |
| 20260509233558 | 12 | 44 | 8.0 | 16.1 | 0.00 | 0.00 | 0.00 | 69 | 1007.9 |
| 20260509233055 | 12 | 10 | 9.7 | 17.7 | 0.00 | 0.00 | 0.00 | 68 | 1007.8 |
| 20260509232551 | 12 | 346 | 8.0 | 12.9 | 0.00 | 0.00 | 0.00 | 68 | 1007.8 |
| 20260509232049 | 12 | 310 | 8.0 | 16.1 | 0.00 | 0.00 | 0.00 | 67 | 1008.0 |
| 20260509231545 | 13 | 309 | 3.2 | 14.5 | 0.00 | 0.00 | 0.00 | 66 | 1008.0 |
| 20260509231043 | 12 | 23 | 6.4 | 12.9 | 0.00 | 0.00 | 0.00 | 66 | 1008.0 |
| 20260509230539 | 13 | 17 | 9.7 | 20.9 | 0.00 | 0.00 | 0.00 | 65 | 1008.3 |
| 20260509230037 | 13 | 351 | 8.0 | 17.7 | 0.00 | 0.00 | 0.00 | 65 | 1008.0 |
| 20260509225532 | 13 | 22 | 11.3 | 17.7 | 0.00 | 0.00 | 0.00 | 64 | 1008.5 |
| 20260509225027 | 13 | 5 | 6.4 | 6.4 | 0.00 | 0.00 | 0.00 | 64 | 1008.4 |
| 20260509224523 | 13 | 19 | 12.9 | 14.5 | 0.00 | 0.00 | 0.00 | 63 | 1008.5 |
| 20260509224020 | 13 | 340 | 8.0 | 14.5 | 0.00 | 0.00 | 0.00 | 63 | 1008.6 |
| 20260509223517 | 13 | 323 | 11.3 | 16.1 | 0.00 | 0.00 | 0.00 | 62 | 1008.3 |
| 20260509223015 | 13 | 26 | 9.7 | 24.1 | 0.00 | 0.00 | 0.00 | 62 | 1008.6 |
| 20260509222511 | 13 | 352 | 11.3 | 16.1 | 0.00 | 0.00 | 0.00 | 61 | 1008.4 |
| 20260509222006 | 13 | 276 | 9.7 | 17.7 | 0.00 | 0.00 | 0.00 | 61 | 1008.3 |
| 20260509221502 | 13 | 2 | 3.2 | 12.9 | 0.00 | 0.00 | 0.00 | 61 | 1008.3 |
| 20260509220958 | 14 | 330 | 12.9 | 20.9 | 0.00 | 0.00 | 0.00 | 61 | 1008.4 |
| 20260509220455 | 15 | 356 | 9.7 | 12.9 | 0.00 | 0.00 | 0.00 | 58 | 1008.1 |
| 20260509215950 | 15 | 356 | 11.3 | 16.1 | 0.00 | 0.00 | 0.00 | 56 | 1008.1 |
| 20260509215446 | 15 | 357 | 12.9 | 16.1 | 0.00 | 0.00 | 0.00 | 56 | 1008.2 |
| 20260509214944 | 15 | 336 | 6.4 | 9.7 | 0.00 | 0.00 | 0.00 | 55 | 1008.1 |
| 20260509214441 | 15 | 353 | 9.7 | 11.3 | 0.00 | 0.00 | 0.00 | 53 | 1008.3 |
| 20260509213937 | 15 | 353 | 9.7 | 11.3 | 0.00 | 0.00 | 0.00 | 53 | 1008.4 |
| 20260509213433 | 15 | 17 | 9.7 | 11.3 | 0.00 | 0.00 | 0.00 | 53 | 1008.3 |
| 20260509212931 | 15 | 346 | 8.0 | 12.9 | 0.00 | 0.00 | 0.00 | 52 | 1008.2 |
| 20260509212429 | 16 | 1 | 8.0 | 17.7 | 0.00 | 0.00 | 0.00 | 51 | 1008.5 |
| 20260509211924 | 16 | 339 | 8.0 | 11.3 | 0.00 | 0.00 | 0.00 | 50 | 1008.6 |
| 20260509211420 | 16 | 349 | 8.0 | 20.9 | 0.00 | 0.00 | 0.00 | 50 | 1008.7 |
| 20260509210917 | 16 | 62 | 4.8 | 6.4 | 0.00 | 0.00 | 0.00 | 49 | 1008.5 |
| 20260509210414 | 16 | 31 | 9.7 | 16.1 | 0.00 | 0.00 | 0.00 | 47 | 1008.5 |
| 20260509205910 | 16 | 22 | 11.3 | 22.5 | 0.00 | 0.00 | 0.00 | 44 | 1008.3 |
| 20260509205409 | 17 | 34 | 3.2 | 6.4 | 0.00 | 0.00 | 0.00 | 43 | 1008.3 |
| 20260509204906 | 17 | 9 | 9.7 | 14.5 | 0.00 | 0.00 | 0.00 | 43 | 1008.4 |
| 20260509204402 | 17 | 16 | 3.2 | 9.7 | 0.00 | 0.00 | 0.00 | 42 | 1008.4 |
| 20260509203859 | 17 | 10 | 8.0 | 14.5 | 0.00 | 0.00 | 0.00 | 41 | 1008.2 |
| 20260509203355 | 17 | 355 | 8.0 | 12.9 | 0.00 | 0.00 | 0.00 | 38 | 1008.6 |
| 20260509202853 | 17 | 312 | 8.0 | 14.5 | 0.00 | 0.00 | 0.00 | 38 | 1008.5 |
| 20260509202348 | 17 | 24 | 9.7 | 16.1 | 0.00 | 0.00 | 0.00 | 36 | 1008.7 |
| 20260509201843 | 17 | 56 | 9.7 | 12.9 | 0.00 | 0.00 | 0.00 | 37 | 1008.5 |
| 20260509201339 | 17 | 358 | 3.2 | 6.4 | 0.00 | 0.00 | 0.00 | 35 | 1008.9 |
| 20260509200836 | 17 | 358 | 4.8 | 9.7 | 0.00 | 0.00 | 0.00 | 34 | 1008.9 |
| 20260509200331 | 17 | 352 | 9.7 | 16.1 | 0.00 | 0.00 | 0.00 | 35 | 1008.9 |
| 20260509195828 | 17 | 1 | 8.0 | 16.1 | 0.00 | 0.00 | 0.00 | 34 | 1008.9 |
| 20260509195328 | 17 | 351 | 6.4 | 12.9 | 0.00 | 0.00 | 0.00 | 33 | 1008.9 |
| 20260509194828 | 17 | 345 | 3.2 | 11.3 | 0.00 | 0.00 | 0.00 | 33 | 1009.0 |
| 20260509194324 | 17 | 5 | 8.0 | 11.3 | 0.00 | 0.00 | 0.00 | 32 | 1009.1 |
| 20260509193821 | 17 | 49 | 6.4 | 17.7 | 0.00 | 0.00 | 0.00 | 32 | 1009.1 |
| 20260509193321 | 17 | 334 | 9.7 | 14.5 | 0.00 | 0.00 | 0.00 | 31 | 1009.0 |
| 20260509192817 | 18 | 339 | 6.4 | 11.3 | 0.00 | 0.00 | 0.00 | 30 | 1009.0 |
| 20260509192313 | 17 | 358 | 4.8 | 6.4 | 0.00 | 0.00 | 0.00 | 31 | 1009.0 |
| 20260509191808 | 18 | 327 | 4.8 | 12.9 | 0.00 | 0.00 | 0.00 | 30 | 1009.2 |
| 20260509191305 | 18 | 16 | 4.8 | 11.3 | 0.00 | 0.00 | 0.00 | 29 | 1009.3 |
| 20260509190800 | 18 | 34 | 6.4 | 20.9 | 0.00 | 0.00 | 0.00 | 29 | 1009.4 |
| 20260509190258 | 18 | 20 | 6.4 | 17.7 | 0.00 | 0.00 | 0.00 | 29 | 1009.5 |
| 20260509185755 | 18 | 37 | 6.4 | 11.3 | 0.00 | 0.00 | 0.00 | 29 | 1009.4 |
| 20260509185251 | 18 | 17 | 9.7 | 12.9 | 0.00 | 0.00 | 0.00 | 28 | 1009.4 |
| 20260509184749 | 17 | 40 | 3.2 | 11.3 | 0.00 | 0.00 | 0.00 | 27 | 1009.2 |
| 20260509184246 | 17 | 356 | 4.8 | 16.1 | 0.00 | 0.00 | 0.00 | 27 | 1009.4 |
| 20260509183742 | 17 | 2 | 9.7 | 12.9 | 0.00 | 0.00 | 0.00 | 26 | 1009.4 |
| 20260509183237 | 17 | 322 | 6.4 | 16.1 | 0.00 | 0.00 | 0.00 | 25 | 1009.4 |
| 20260509182733 | 17 | 356 | 11.3 | 14.5 | 0.00 | 0.00 | 0.00 | 25 | 1009.6 |
| 20260509182231 | 17 | 22 | 4.8 | 6.4 | 0.00 | 0.00 | 0.00 | 24 | 1009.6 |
| 20260509181729 | 17 | 3 | 8.0 | 9.7 | 0.00 | 0.00 | 0.00 | 25 | 1009.9 |
| 20260509181226 | 17 | 317 | 6.4 | 14.5 | 0.00 | 0.00 | 0.00 | 25 | 1009.9 |
| 20260509180723 | 17 | 45 | 4.8 | 11.3 | 0.00 | 0.00 | 0.00 | 24 | 1009.9 |
| 20260509180219 | 17 | 46 | 3.2 | 12.9 | 0.00 | 0.00 | 0.00 | 25 | 1010.0 |
| 20260509175715 | 17 | 338 | 9.7 | 14.5 | 0.00 | 0.00 | 0.00 | 24 | 1010.0 |
| 20260509175212 | 17 | 10 | 11.3 | 16.1 | 0.00 | 0.00 | 0.00 | 23 | 1010.3 |
| 20260509174707 | 17 | 3 | 4.8 | 9.7 | 0.00 | 0.00 | 0.00 | 25 | 1010.3 |
| 20260509174203 | 17 | 14 | 6.4 | 16.1 | 0.00 | 0.00 | 0.00 | 25 | 1010.6 |
| 20260509173659 | 17 | 50 | 4.8 | 9.7 | 0.00 | 0.00 | 0.00 | 24 | 1010.4 |
| 20260509173155 | 17 | 349 | 4.8 | 11.3 | 0.00 | 0.00 | 0.00 | 25 | 1010.4 |
| 20260509172651 | 17 | 22 | 4.8 | 17.7 | 0.00 | 0.00 | 0.00 | 26 | 1010.4 |
| 20260509172148 | 17 | 11 | 6.4 | 11.3 | 0.00 | 0.00 | 0.00 | 27 | 1010.4 |
| 20260509171643 | 17 | 26 | 6.4 | 11.3 | 0.00 | 0.00 | 0.00 | 28 | 1010.6 |
| 20260509171140 | 17 | 19 | 6.4 | 12.9 | 0.00 | 0.00 | 0.00 | 27 | 1010.9 |
| 20260509170636 | 18 | 325 | 3.2 | 4.8 | 0.00 | 0.00 | 0.00 | 27 | 1011.0 |
| 20260509170133 | 17 | 25 | 4.8 | 6.4 | 0.00 | 0.00 | 0.00 | 27 | 1010.8 |
| 20260509165631 | 18 | 351 | 9.7 | 14.5 | 0.00 | 0.00 | 0.00 | 27 | 1011.1 |
| 20260509165127 | 17 | 36 | 3.2 | 4.8 | 0.00 | 0.00 | 0.00 | 28 | 1011.2 |
| 20260509164623 | 17 | 22 | 6.4 | 9.7 | 0.00 | 0.00 | 0.00 | 29 | 1011.1 |
| 20260509164119 | 17 | 345 | 4.8 | 6.4 | 0.00 | 0.00 | 0.00 | 27 | 1011.1 |
| 20260509163617 | 17 | 338 | 9.7 | 11.3 | 0.00 | 0.00 | 0.00 | 27 | 1011.3 |
| 20260509163112 | 17 | 352 | 6.4 | 11.3 | 0.00 | 0.00 | 0.00 | 28 | 1011.3 |
| 20260509162610 | 17 | 347 | 6.4 | 9.7 | 0.00 | 0.00 | 0.00 | 28 | 1011.6 |
| 20260509162105 | 17 | 11 | 6.4 | 12.9 | 0.00 | 0.00 | 0.00 | 28 | 1011.4 |
| 20260509161602 | 16 | 9 | 4.8 | 6.4 | 0.00 | 0.00 | 0.00 | 29 | 1011.5 |
| 20260509161102 | 16 | 357 | 11.3 | 14.5 | 0.00 | 0.00 | 0.00 | 29 | 1011.8 |
| 20260509160558 | 16 | 50 | 9.7 | 16.1 | 0.00 | 0.00 | 0.00 | 30 | 1011.6 |
| 20260509160054 | 16 | 331 | 3.2 | 4.8 | 0.00 | 0.00 | 0.00 | 31 | 1011.8 |
| 20260509155550 | 16 | 7 | 3.2 | 9.7 | 0.00 | 0.00 | 0.00 | 32 | 1012.0 |
| 20260509155047 | 15 | 13 | 6.4 | 9.7 | 0.00 | 0.00 | 0.00 | 31 | 1012.1 |
| 20260509154537 | 15 | 357 | 3.2 | 11.3 | 0.00 | 0.00 | 0.00 | 31 | 1012.0 |
| 20260509154035 | 15 | 13 | 4.8 | 14.5 | 0.00 | 0.00 | 0.00 | 32 | 1012.1 |
| 20260509153531 | 15 | 325 | 6.4 | 11.3 | 0.00 | 0.00 | 0.00 | 32 | 1012.2 |
| 20260509153028 | 15 | 10 | 6.4 | 11.3 | 0.00 | 0.00 | 0.00 | 33 | 1012.2 |
| 20260509152524 | 15 | 45 | 6.4 | 14.5 | 0.00 | 0.00 | 0.00 | 33 | 1012.4 |
| 20260509152021 | 15 | 11 | 6.4 | 11.3 | 0.00 | 0.00 | 0.00 | 34 | 1012.7 |
| 20260509151517 | 15 | 354 | 8.0 | 14.5 | 0.00 | 0.00 | 0.00 | 35 | 1012.5 |
| 20260509151015 | 15 | 353 | 9.7 | 11.3 | 0.00 | 0.00 | 0.00 | 36 | 1012.4 |
| 20260509150512 | 15 | 5 | 6.4 | 11.3 | 0.00 | 0.00 | 0.00 | 36 | 1012.7 |
| 20260509150011 | 15 | 16 | 1.6 | 6.4 | 0.00 | 0.00 | 0.00 | 36 | 1012.7 |
| 20260509145506 | 15 | 25 | 3.2 | 12.9 | 0.00 | 0.00 | 0.00 | 36 | 1012.5 |
| 20260509145001 | 15 | 13 | 4.8 | 9.7 | 0.00 | 0.00 | 0.00 | 37 | 1012.6 |
| 20260509144459 | 15 | 39 | 3.2 | 6.4 | 0.00 | 0.00 | 0.00 | 36 | 1012.7 |
| 20260509143956 | 15 | 20 | 0.0 | 4.8 | 0.00 | 0.00 | 0.00 | 38 | 1012.6 |
| 20260509143453 | 14 | 22 | 3.2 | 6.4 | 0.00 | 0.00 | 0.00 | 38 | 1012.7 |